| time (UTC) | temp C | wind direction | speed KPH | gust KPH | rain 1hr cm | rain 24hr cm | rain mn cm | humidity % | barometer mb |
| 20260504110518 | -17 | 0.0 | 0.0 | 0.00 | 0.00 | 0.00 | 1012.4 | ||
| 20260504100519 | -17 | 0.0 | 0.0 | 0.00 | 0.00 | 0.00 | 1013.0 | ||
| 20260504081538 | 21 | 201 | 1.6 | 9.7 | 0.00 | 0.00 | 0.00 | 42 | 1013.4 |
| 20260504081041 | 21 | 203 | 3.2 | 6.4 | 0.00 | 0.00 | 0.00 | 43 | 1013.3 |
| 20260504080519 | 21 | 290 | 3.2 | 9.7 | 0.00 | 0.00 | 0.00 | 44 | 1013.4 |
| 20260504050522 | 13 | 0.0 | 0.0 | 0.00 | 0.00 | 0.00 | 62 | 1013.4 | |
| 20260504050019 | 13 | 220 | 0.0 | 1.6 | 0.00 | 0.00 | 0.00 | 61 | 1013.3 |
| 20260504045519 | 13 | 169 | 1.6 | 3.2 | 0.00 | 0.00 | 0.00 | 61 | 1013.2 |
| 20260504045019 | 13 | 0.0 | 0.0 | 0.00 | 0.00 | 0.00 | 60 | 1013.1 | |
| 20260504044520 | 13 | 166 | 1.6 | 3.2 | 0.00 | 0.00 | 0.00 | 60 | 1013.1 |
| 20260504044020 | 12 | 0.0 | 0.0 | 0.00 | 0.00 | 0.00 | 60 | 1013.2 | |
| 20260504043519 | 12 | 0.0 | 0.0 | 0.00 | 0.00 | 0.00 | 59 | 1013.2 | |
| 20260504043019 | 12 | 163 | 3.2 | 6.4 | 0.00 | 0.00 | 0.00 | 60 | 1013.1 |
| 20260504042519 | 12 | 160 | 1.6 | 4.8 | 0.00 | 0.00 | 0.00 | 62 | 1013.2 |
| 20260504042019 | 11 | 160 | 0.0 | 3.2 | 0.00 | 0.00 | 0.00 | 64 | 1013.2 |
| 20260504041520 | 11 | 144 | 0.0 | 3.2 | 0.00 | 0.00 | 0.00 | 63 | 1013.1 |
| 20260504041017 | 11 | 161 | 1.6 | 4.8 | 0.00 | 0.00 | 0.00 | 65 | 1013.1 |
| 20260504040540 | 11 | 179 | 1.6 | 4.8 | 0.00 | 0.00 | 0.00 | 67 | 1013.2 |
| 20260504040019 | 11 | 0.0 | 0.0 | 0.00 | 0.00 | 0.00 | 66 | 1013.3 | |
| 20260504035520 | 11 | 0.0 | 0.0 | 0.00 | 0.00 | 0.00 | 65 | 1013.2 | |
| 20260504035040 | 11 | 200 | 1.6 | 3.2 | 0.00 | 0.00 | 0.00 | 66 | 1013.2 |
| 20260504034520 | 11 | 205 | 0.0 | 1.6 | 0.00 | 0.00 | 0.00 | 66 | 1013.2 |
| 20260504034020 | 11 | 175 | 1.6 | 3.2 | 0.00 | 0.00 | 0.00 | 66 | 1013.1 |
| 20260504033618 | 11 | 0.0 | 0.0 | 0.00 | 0.00 | 0.00 | 65 | 1013.1 | |
| 20260504033020 | 11 | 0.0 | 0.0 | 0.00 | 0.00 | 0.00 | 65 | 1013.1 | |
| 20260504032517 | 11 | 0.0 | 0.0 | 0.00 | 0.00 | 0.00 | 64 | 1013.0 | |
| 20260504032017 | 11 | 0.0 | 0.0 | 0.00 | 0.00 | 0.00 | 63 | 1013.0 | |
| 20260504031518 | 11 | 0.0 | 0.0 | 0.00 | 0.00 | 0.00 | 62 | 1012.8 | |
| 20260504031019 | 11 | 166 | 0.0 | 3.2 | 0.00 | 0.00 | 0.00 | 62 | 1012.8 |
| 20260504030521 | 11 | 219 | 0.0 | 1.6 | 0.00 | 0.00 | 0.00 | 61 | 1012.7 |
| 20260504030020 | 12 | 0.0 | 0.0 | 0.00 | 0.00 | 0.00 | 61 | 1012.4 | |
| 20260504025541 | 12 | 0.0 | 0.0 | 0.00 | 0.00 | 0.00 | 59 | 1012.2 | |
| 20260504025018 | 12 | 0.0 | 0.0 | 0.00 | 0.00 | 0.00 | 58 | 1012.2 | |
| 20260504024518 | 12 | 0.0 | 0.0 | 0.00 | 0.00 | 0.00 | 57 | 1012.2 | |
| 20260504024018 | 13 | 0.0 | 0.0 | 0.00 | 0.00 | 0.00 | 57 | 1012.1 | |
| 20260504023519 | 13 | 0.0 | 0.0 | 0.00 | 0.00 | 0.00 | 56 | 1012.1 | |
| 20260504023018 | 13 | 0.0 | 0.0 | 0.00 | 0.00 | 0.00 | 54 | 1012.1 | |
| 20260504022518 | 14 | 0.0 | 0.0 | 0.00 | 0.00 | 0.00 | 52 | 1012.1 | |
| 20260504022019 | 14 | 173 | 0.0 | 3.2 | 0.00 | 0.00 | 0.00 | 51 | 1012.1 |
| 20260504021518 | 14 | 172 | 1.6 | 4.8 | 0.00 | 0.00 | 0.00 | 50 | 1012.1 |
| 20260504021018 | 15 | 170 | 0.0 | 4.8 | 0.00 | 0.00 | 0.00 | 49 | 1012.1 |
| 20260504020519 | 15 | 172 | 1.6 | 3.2 | 0.00 | 0.00 | 0.00 | 48 | 1012.1 |
| 20260504020019 | 15 | 173 | 1.6 | 4.8 | 0.00 | 0.00 | 0.00 | 48 | 1012.2 |
| 20260504015519 | 15 | 171 | 1.6 | 3.2 | 0.00 | 0.00 | 0.00 | 47 | 1012.1 |
| 20260504015019 | 15 | 169 | 1.6 | 3.2 | 0.00 | 0.00 | 0.00 | 46 | 1012.1 |
| 20260504014519 | 16 | 177 | 1.6 | 4.8 | 0.00 | 0.00 | 0.00 | 46 | 1012.1 |
| 20260504014039 | 16 | 170 | 1.6 | 6.4 | 0.00 | 0.00 | 0.00 | 45 | 1012.1 |
| 20260504013519 | 16 | 169 | 3.2 | 6.4 | 0.00 | 0.00 | 0.00 | 45 | 1012.0 |
| 20260504013040 | 16 | 173 | 3.2 | 6.4 | 0.00 | 0.00 | 0.00 | 45 | 1012.0 |
| 20260504012519 | 16 | 172 | 3.2 | 6.4 | 0.00 | 0.00 | 0.00 | 45 | 1012.0 |
| 20260504012020 | 16 | 172 | 1.6 | 6.4 | 0.00 | 0.00 | 0.00 | 45 | 1012.0 |
| 20260504011520 | 16 | 153 | 3.2 | 8.0 | 0.00 | 0.00 | 0.00 | 44 | 1012.0 |
| 20260504011040 | 16 | 145 | 1.6 | 6.4 | 0.00 | 0.00 | 0.00 | 44 | 1012.0 |
| 20260504010540 | 16 | 142 | 3.2 | 6.4 | 0.00 | 0.00 | 0.00 | 44 | 1012.0 |
| 20260504010020 | 16 | 149 | 3.2 | 6.4 | 0.00 | 0.00 | 0.00 | 43 | 1012.0 |
| 20260504005540 | 16 | 144 | 3.2 | 8.0 | 0.00 | 0.00 | 0.00 | 43 | 1012.0 |
| 20260504005020 | 17 | 149 | 4.8 | 8.0 | 0.00 | 0.00 | 0.00 | 43 | 1012.0 |
| 20260504004517 | 17 | 153 | 3.2 | 8.0 | 0.00 | 0.00 | 0.00 | 43 | 1012.0 |
| 20260504004017 | 17 | 156 | 3.2 | 8.0 | 0.00 | 0.00 | 0.00 | 42 | 1012.0 |
| 20260504003518 | 17 | 158 | 4.8 | 11.3 | 0.00 | 0.00 | 0.00 | 42 | 1012.0 |
| 20260504003038 | 17 | 155 | 3.2 | 9.7 | 0.00 | 0.00 | 0.00 | 42 | 1012.0 |
| 20260504002541 | 17 | 159 | 4.8 | 11.3 | 0.00 | 0.00 | 0.00 | 42 | 1012.1 |
| 20260504002021 | 17 | 153 | 3.2 | 8.0 | 0.00 | 0.00 | 0.00 | 42 | 1012.1 |
| 20260504001521 | 17 | 157 | 4.8 | 11.3 | 0.00 | 0.00 | 0.00 | 42 | 1012.1 |
| 20260504001041 | 17 | 153 | 4.8 | 9.7 | 0.00 | 0.00 | 0.00 | 42 | 1012.2 |
| 20260504000518 | 17 | 151 | 3.2 | 14.5 | 0.00 | 0.00 | 0.00 | 42 | 1012.3 |
| 20260504000038 | 17 | 158 | 4.8 | 9.7 | 0.00 | 0.00 | 0.00 | 42 | 1012.3 |
| 20260503235518 | 17 | 161 | 4.8 | 9.7 | 0.00 | 0.00 | 0.00 | 42 | 1012.3 |
| 20260503235018 | 17 | 160 | 4.8 | 11.3 | 0.00 | 0.00 | 0.00 | 42 | 1012.3 |
| 20260503234518 | 17 | 162 | 4.8 | 9.7 | 0.00 | 0.00 | 0.00 | 42 | 1012.3 |
| 20260503234018 | 17 | 158 | 3.2 | 11.3 | 0.00 | 0.00 | 0.00 | 43 | 1012.4 |
| 20260503233519 | 17 | 153 | 4.8 | 9.7 | 0.00 | 0.00 | 0.00 | 43 | 1012.4 |
| 20260503233019 | 17 | 159 | 4.8 | 14.5 | 0.00 | 0.00 | 0.00 | 43 | 1012.4 |
| 20260503232522 | 17 | 164 | 4.8 | 9.7 | 0.00 | 0.00 | 0.00 | 43 | 1012.5 |
| 20260503232019 | 17 | 163 | 3.2 | 11.3 | 0.00 | 0.00 | 0.00 | 43 | 1012.5 |
| 20260503231518 | 17 | 157 | 4.8 | 12.9 | 0.00 | 0.00 | 0.00 | 43 | 1012.5 |
| 20260503231019 | 17 | 162 | 4.8 | 12.9 | 0.00 | 0.00 | 0.00 | 43 | 1012.6 |
| 20260503230539 | 17 | 161 | 6.4 | 14.5 | 0.00 | 0.00 | 0.00 | 43 | 1012.6 |
| 20260503230019 | 17 | 153 | 1.6 | 9.7 | 0.00 | 0.00 | 0.00 | 44 | 1012.6 |
| 20260503225518 | -17 | 0.0 | 0.0 | 0.00 | 0.00 | 0.00 | 1012.6 | ||
| 20260503225039 | -17 | 0.0 | 0.0 | 0.00 | 0.00 | 0.00 | 1012.7 | ||
| 20260503224539 | -17 | 0.0 | 0.0 | 0.00 | 0.00 | 0.00 | 1012.7 | ||
| 20260503224019 | -17 | 0.0 | 0.0 | 0.00 | 0.00 | 0.00 | 1012.7 | ||
| 20260503223519 | -17 | 0.0 | 0.0 | 0.00 | 0.00 | 0.00 | 1012.7 | ||
| 20260503223019 | -17 | 0.0 | 0.0 | 0.00 | 0.00 | 0.00 | 1012.7 | ||
| 20260503222539 | -17 | 0.0 | 0.0 | 0.00 | 0.00 | 0.00 | 1012.7 | ||
| 20260503222019 | -17 | 0.0 | 0.0 | 0.00 | 0.00 | 0.00 | 1012.8 | ||
| 20260503221519 | -17 | 0.0 | 0.0 | 0.00 | 0.00 | 0.00 | 1012.8 | ||
| 20260503221019 | -17 | 0.0 | 0.0 | 0.00 | 0.00 | 0.00 | 1012.9 | ||
| 20260503220521 | -17 | 0.0 | 0.0 | 0.00 | 0.00 | 0.00 | 1012.9 | ||
| 20260503220019 | -17 | 0.0 | 0.0 | 0.00 | 0.00 | 0.00 | 1012.9 | ||
| 20260503215539 | -17 | 0.0 | 0.0 | 0.00 | 0.00 | 0.00 | 1013.0 | ||
| 20260503215020 | -17 | 0.0 | 0.0 | 0.00 | 0.00 | 0.00 | 1013.0 | ||
| 20260503214520 | -17 | 0.0 | 0.0 | 0.00 | 0.00 | 0.00 | 1013.0 | ||
| 20260503214020 | -17 | 0.0 | 0.0 | 0.00 | 0.00 | 0.00 | 1013.0 | ||
| 20260503213537 | -17 | 0.0 | 0.0 | 0.00 | 0.00 | 0.00 | 1013.0 | ||
| 20260503213017 | -17 | 0.0 | 0.0 | 0.00 | 0.00 | 0.00 | 1013.0 | ||
| 20260503212520 | -17 | 0.0 | 0.0 | 0.00 | 0.00 | 0.00 | 1013.0 | ||
| 20260503212020 | -17 | 0.0 | 0.0 | 0.00 | 0.00 | 0.00 | 1013.0 | ||
| 20260503211540 | -17 | 0.0 | 0.0 | 0.00 | 0.00 | 0.00 | 1013.0 | ||
| 20260503211021 | -17 | 0.0 | 0.0 | 0.00 | 0.00 | 0.00 | 1013.1 | ||
| 20260503210520 | -17 | 0.0 | 0.0 | 0.00 | 0.00 | 0.00 | 1013.1 | ||
| 20260503210021 | -17 | 0.0 | 0.0 | 0.00 | 0.00 | 0.00 | 1013.2 | ||
| 20260503205518 | -17 | 0.0 | 0.0 | 0.00 | 0.00 | 0.00 | 1013.2 | ||
| 20260503205018 | -17 | 0.0 | 0.0 | 0.00 | 0.00 | 0.00 | 1013.2 | ||
| 20260503204518 | -17 | 0.0 | 0.0 | 0.00 | 0.00 | 0.00 | 1013.2 | ||
| 20260503204018 | -17 | 0.0 | 0.0 | 0.00 | 0.00 | 0.00 | 1013.2 | ||
| 20260503203518 | -17 | 0.0 | 0.0 | 0.00 | 0.00 | 0.00 | 1013.2 | ||
| 20260503203018 | -17 | 0.0 | 0.0 | 0.00 | 0.00 | 0.00 | 1013.2 | ||
| 20260503202521 | -17 | 0.0 | 0.0 | 0.00 | 0.00 | 0.00 | 1013.2 | ||
| 20260503202021 | -17 | 0.0 | 0.0 | 0.00 | 0.00 | 0.00 | 1013.2 | ||
| 20260503201521 | -17 | 0.0 | 0.0 | 0.00 | 0.00 | 0.00 | 1013.2 | ||
| 20260503201039 | -17 | 0.0 | 0.0 | 0.00 | 0.00 | 0.00 | 1013.2 | ||
| 20260503200521 | -17 | 0.0 | 0.0 | 0.00 | 0.00 | 0.00 | 1013.2 | ||
| 20260503200022 | -17 | 0.0 | 0.0 | 0.00 | 0.00 | 0.00 | 1013.2 | ||
| 20260503195519 | -17 | 0.0 | 0.0 | 0.00 | 0.00 | 0.00 | 1013.2 | ||
| 20260503195019 | -17 | 0.0 | 0.0 | 0.00 | 0.00 | 0.00 | 1013.1 | ||
| 20260503194519 | -17 | 0.0 | 0.0 | 0.00 | 0.00 | 0.00 | 1013.1 | ||
| 20260503194019 | -17 | 0.0 | 0.0 | 0.00 | 0.00 | 0.00 | 1013.1 | ||
| 20260503193539 | -17 | 0.0 | 0.0 | 0.00 | 0.00 | 0.00 | 1013.0 | ||
| 20260503193059 | -17 | 0.0 | 0.0 | 0.00 | 0.00 | 0.00 | 1013.0 | ||
| 20260503192519 | -17 | 0.0 | 0.0 | 0.00 | 0.00 | 0.00 | 1013.0 | ||
| 20260503192019 | -17 | 0.0 | 0.0 | 0.00 | 0.00 | 0.00 | 1013.0 | ||
| 20260503191519 | -17 | 0.0 | 0.0 | 0.00 | 0.00 | 0.00 | 1012.9 | ||
| 20260503191020 | -17 | 0.0 | 0.0 | 0.00 | 0.00 | 0.00 | 1012.9 | ||
| 20260503190519 | -17 | 0.0 | 0.0 | 0.00 | 0.00 | 0.00 | 1012.8 | ||
| 20260503190019 | -17 | 0.0 | 0.0 | 0.00 | 0.00 | 0.00 | 1012.8 | ||
| 20260503185519 | -17 | 0.0 | 0.0 | 0.00 | 0.00 | 0.00 | 1012.8 | ||
| 20260503185020 | -17 | 0.0 | 0.0 | 0.00 | 0.00 | 0.00 | 1012.7 | ||
| 20260503184520 | -17 | 0.0 | 0.0 | 0.00 | 0.00 | 0.00 | 1012.7 | ||
| 20260503184020 | -17 | 0.0 | 0.0 | 0.00 | 0.00 | 0.00 | 1012.6 | ||
| 20260503183517 | -17 | 0.0 | 0.0 | 0.00 | 0.00 | 0.00 | 1012.6 | ||
| 20260503183037 | -17 | 0.0 | 0.0 | 0.00 | 0.00 | 0.00 | 1012.5 | ||
| 20260503182520 | -17 | 0.0 | 0.0 | 0.00 | 0.00 | 0.00 | 1012.4 | ||
| 20260503182041 | -17 | 0.0 | 0.0 | 0.00 | 0.00 | 0.00 | 1012.4 | ||
| 20260503181520 | -17 | 0.0 | 0.0 | 0.00 | 0.00 | 0.00 | 1012.4 | ||
| 20260503181021 | -17 | 0.0 | 0.0 | 0.00 | 0.00 | 0.00 | 1012.4 | ||
| 20260503180541 | -17 | 0.0 | 0.0 | 0.00 | 0.00 | 0.00 | 1012.3 | ||
| 20260503180021 | -17 | 0.0 | 0.0 | 0.00 | 0.00 | 0.00 | 1012.3 | ||
| 20260503175518 | -17 | 0.0 | 0.0 | 0.00 | 0.00 | 0.00 | 1012.3 | ||
| 20260503175018 | -17 | 0.0 | 0.0 | 0.00 | 0.00 | 0.00 | 1012.3 | ||
| 20260503174518 | -17 | 0.0 | 0.0 | 0.00 | 0.00 | 0.00 | 1012.3 | ||
| 20260503174038 | -17 | 0.0 | 0.0 | 0.00 | 0.00 | 0.00 | 1012.2 | ||
| 20260503173518 | -17 | 0.0 | 0.0 | 0.00 | 0.00 | 0.00 | 1012.2 | ||
| 20260503173018 | -17 | 0.0 | 0.0 | 0.00 | 0.00 | 0.00 | 1012.2 | ||
| 20260503172521 | -17 | 0.0 | 0.0 | 0.00 | 0.00 | 0.00 | 1012.2 | ||
| 20260503172022 | -17 | 0.0 | 0.0 | 0.00 | 0.00 | 0.00 | 1012.2 | ||
| 20260503171519 | -17 | 0.0 | 0.0 | 0.00 | 0.00 | 0.00 | 1012.2 | ||
| 20260503171019 | -17 | 0.0 | 0.0 | 0.00 | 0.00 | 0.00 | 1012.1 | ||
| 20260503170539 | -17 | 0.0 | 0.0 | 0.00 | 0.00 | 0.00 | 1012.1 | ||
| 20260503150521 | -17 | 0.0 | 0.0 | 0.00 | 0.00 | 0.00 | 1012.6 | ||
| 20260503131017 | -17 | 0.0 | 0.0 | 0.00 | 0.00 | 0.00 | 1013.9 | ||
| 20260503130520 | -17 | 0.0 | 0.0 | 0.00 | 0.00 | 0.00 | 1013.9 |